Miscellaneous Local Product
Issued by NWS North Platte, NE

Home | Current Version | Previous Version | Graphics & Text | Print | Product List | Glossary On
Versions: 1 2 3 4 5 6 7 8 9 10 11 12 13 14 15 16 17 18 19 20 21 22 23 24 25 26 27 28 29 30 31 32 33 34 35 36 37 38 39 40 41 42 43 44 45 46 47 48 49 50
000
AXUS43 KLBF 291710
MISLBF


WESTERN AND NORTH CENTRAL NEBRASKA HOURLY WEATHER ROUNDUP
NATIONAL WEATHER SERVICE NORTH PLATTE NE
1200 PM CDT MON SEP 29 2014

***STATIONS NOT REPORTING VARIABLES SUCH AS SKY/WEATHER OR
PRESSURE ARE PROVIDED BY THE NEBRASKA DEPARTMENT OF
ROADS...RAWS...AND APRS NETWORKS...AND ARE NOT UNDER
NATIONAL WEATHER SERVICE QUALITY CONTROL***

...OBSERVATIONS IN AND NEAR THE EASTERN PANHANDLE OF NEBRASKA...

CITY           SKY/WX    TMP DP  RH WIND       PRES   REMARKS
PINE RIDGE     RAIN      52  51  97 NE13      30.04F FOG
CHADRON        LGT RAIN  52  51  97 NE10      30.02R FOG
ALLIANCE       LGT RAIN  56  55  97 SE8       30.00F FOG
SIDNEY         CLOUDY    62  56  80 E6        30.01F
WHITECLAY        N/A     50  49  95 CALM        N/A
RUSHVILLE        N/A     51  51  97 NE10        N/A
CRESCENT LAKE    N/A     59  55  87 CALM        N/A
LISCO            N/A     64  59  86 E5          N/A
BIG SPRINGS      N/A     66  57  74 S6          N/A
$$

...OBSERVATIONS IN NORTH CENTRAL NEBRASKA...

CITY           SKY/WX    TMP DP  RH WIND       PRES   REMARKS
VALENTINE      CLOUDY    57  56  96 E13       30.05F FOG
THEDFORD       MOSUNNY   76  58  52 SE10      30.03F
AINSWORTH      CLOUDY    57  57 100 E10       30.07F FOG
O`NEILL        PTSUNNY   65  62  90 E7        30.07F
ORD            SUNNY     75  59  57 SE7       30.03F
BROKEN BOW     SUNNY     78  58  49 S14       30.03F
SPRINGVIEW       N/A     58  56  93 E5          N/A
ROSE             N/A     75  65  72 NE8         N/A
NEWPORT          N/A     60  60  99 E8          N/A
SARGENT          N/A     79  59  50 CALM        N/A
COMSTOCK         N/A     83  62  48 S10         N/A
CHAMBERS         N/A     76  59  54 E3          N/A
EWING            N/A     77  63  62 S3          N/A
$$

...OBSERVATIONS IN SOUTHWEST NEBRASKA AND FAR NORTHEAST COLORADO...

CITY           SKY/WX    TMP DP  RH WIND       PRES   REMARKS
WRAY           FAIR      74  55  51 S10G16    29.99F
IMPERIAL       CLOUDY    72  55  55 S18G28    29.99F
OGALLALA       CLOUDY    72  58  60 S15       29.99F
NORTH PLATTE   SUNNY     79  55  43 S17G25    30.00F
MCCOOK         SUNNY     80  55  42 S17G24    30.00F
LEXINGTON      SUNNY     78  58  50 S13       30.04S
PAXTON           N/A     69  57  65 SE12        N/A
SUTHERLAND       N/A     80  54  40 SE15        N/A
BRADY            N/A     75  58  55 CALM        N/A
GOTHENBURG       N/A     74  54  48 SE8         N/A
CALLAWAY         N/A     74  61  63 S13         N/A
$$

...SOME WEATHER OBSERVATIONS FROM AROUND THE REGION...

CITY           SKY/WX    TMP DP  RH WIND       PRES   REMARKS
DENVER         PTSUNNY   61  49  64 NW5       30.04F
LARAMIE        MOSUNNY   58  39  49 S8        30.08F
CHEYENNE       MOSUNNY   60  44  55 VRB5      30.07F
SCOTTSBLUFF    CLOUDY    59  56  89 NE5       30.00F
RAPID CITY     HVY RAIN  49  48  97 SE5       30.07S VSB 1/2
PIERRE         CLOUDY    57  51  80 E14       30.08F
WINNER         CLOUDY    57  56  96 E9        30.08S FOG
SIOUX FALLS    CLOUDY    61  57  87 NE12      30.11S
OMAHA          MOSUNNY   76  59  55 S7        30.07F
GRAND ISLAND   SUNNY     80  57  45 S9        30.06S
KANSAS CITY    MOSUNNY   80  61  52 VRB3      30.09S
WICHITA        MOSUNNY   82  58  43 SW13      30.07F
HAYS           SUNNY     79  57  47 S10       30.05F
LIBERAL        SUNNY     79  55  44 S20G25    30.07F
GOODLAND       PTSUNNY   75  57  53 S17G28    30.00F
$$



USA.gov is the U.S. government's official web portal to all federal, state and local government web resources and services.